Location: Lussas
(44.6119°N, 4.4726°E)
Time: 13:50:24
(UTC+00:00)

NOSS 3-4 (C) - Pass Details

Date: 26 November 2020
Orbit: 878 x 1334 km, 63.4° (Epoch: 25 January)

Event Time Altitude Azimuth Distance (km) Brightness Sun altitude
Exits shadow 04:19:43 17° 194° (SSW) 2,087 5.1 -26.8°
Maximum altitude 04:24:10 57° 121° (ESE) 1,058 3.9 -26.0°
Drops below altitude 10° 04:30:12 10° 44° (NE) 2,688 6.3 -25.0°
Sets 04:32:54 0° 41° (NE) 3,696 7.0 -24.5°
